FENGYUN 1C DEB, 30325

Orbit data source: Space-Track

FENGYUN 1C DEB, 30325 is space debris in SSO originally from a launch on Mon, 10 May 1999 UTC launched from the Taiyaun Space Center, China (TSC). Fengyun 1C debris stems from the Chinese weather satellite Fengyun-1C, which was intentionally destroyed by a Chinese anti-satellite missile in 2007. This event dramatically increased the amount of space debris, with thousands of trackable fragments posing hazards to satellites and human spaceflight. The Fengyun 1C debris cloud has become a focal point in discussions about space sustainability and the need for international regulations to prevent the creation of new debris.

Loading next visibility...
Identifier
30325, 1999-025AAL
Orbit
SSO
Country
Flag of CNCN / PRC
Related business
Manufacturer
Unknown
Mission
Spacecraft
Bus & Motor
Unknown
Mass
Unknown
Launch date (UTC)
1999-05-10 (27 years ago)
Launch vehicle
Unknown
Launch site
Taiyaun Space Center, China (TSC)
Object type
Payload
Rocket body
Debris
Shape & HBR
Unknown shape, 0.1 m
Radar Cross Section
Medium (>0.1 m² and <1 m²)

Expand to show TLE details & history
Last TLE update: 20 hours ago

TLE from 20 hours ago
0 FENGYUN 1C DEB
1 30325U 99025AAL 26265.28563250 -.00000007  00000-0  20577-4 0  9993
2 30325  98.7187 280.6961 0016428 168.5242 191.6306 14.09187854  9985
Epoch: 2026-09-22T06:51Z
TLE epoch observation values (Epoch: 2026-09-22T06:51:18.647Z)
Latitude
-0.00006°
Longitude
176.71512°
Altitude
876.705 km
Speed
7.408 km/s
True Right ascension
18h 42m 47s
True Declination
0° 00' 00"
Sunlit
Object was in daylight at epoch
Visualization orbit readout
Latitude
Unknown
Longitude
Unknown
Altitude
Unknown
Speed
Unknown
Apparent Right ascension
Unknown
Apparent Declination
Unknown
Sunlit
N/A
Visualization observer readout
Local Sidereal Time
20:13:49
Azimuth
Unknown
Elevation
Unknown
Doppler factor
Unknown
Orbital elements
Apogee altitude
871.215 km
Perigee altitude
847.436 km
Semi-major axis
7,237.463 km
Eccentricity
0.00164
Inclination
98.7187°
RAAN
280.6961°
Arg. of periapsis
168.5242°
True anomaly
191.59272°
Mean anomaly
191.6306°
Eccentric anomaly
191.61165°
Mean motion
3.52504 °/min
Orbital period
102.13 mins
BSTAR
0.000020577
Loading maneuver chart data...
Computing Atmospheric mass density...

Documentation

Showing up to 5 results
|